Location: Fort Wayne
(41.1310°N, 85.1290°W)
Time: 17:57:05
(UTC-05:00)

Courier 1B Rocket - All Passes

Search period start: 23 January 2017 00:00
Search period end: 02 February 2017 00:00
Orbit: 920 x 1202 km, 28.2° (Epoch: 23 January)

Date Brightness Start Highest point End Pass type
(mag) Time Alt. Az. Time Alt. Az. Time Alt. Az.
23 Jan - 03:18:04 10° SSW 03:22:41 18° SSE 03:27:28 10° ESE visible
23 Jan - 05:09:11 10° SW 05:15:20 29° S 05:21:44 10° ESE visible
23 Jan - 07:01:57 10° WSW 07:08:13 28° S 07:14:39 10° SE visible
23 Jan - 08:56:16 10° WSW 09:00:59 17° SSW 09:05:42 10° SSE daylight
24 Jan - 02:18:47 10° S 02:21:56 13° SSE 02:25:11 10° SE night (unlit)
24 Jan - 04:08:41 10° SW 04:14:25 26° SSE 04:20:26 10° ESE visible
24 Jan - 06:00:59 10° WSW 06:07:15 30° S 06:13:45 10° SE visible
24 Jan - 07:54:37 10° WSW 08:00:05 21° SSW 08:05:39 10° SSE daylight
25 Jan - 03:08:27 10° SSW 03:13:35 22° SSE 03:18:59 10° ESE visible
25 Jan - 05:00:12 10° SW 05:06:18 30° S 05:12:43 10° ESE visible
25 Jan - 06:53:18 10° WSW 06:59:09 25° SSW 07:05:11 10° SE visible
25 Jan - 08:48:51 10° SW 08:51:48 12° SSW 08:54:47 10° S daylight
26 Jan - 02:08:35 10° SSW 02:12:49 17° SSE 02:17:14 10° ESE night (unlit)
26 Jan - 03:59:35 10° SW 04:05:24 28° S 04:11:32 10° ESE visible
26 Jan - 05:52:15 10° WSW 05:58:13 27° S 06:04:27 10° SE visible
26 Jan - 07:46:30 10° WSW 07:50:57 17° SSW 07:55:30 10° SSE daylight
27 Jan - 01:09:27 10° S 01:12:09 13° SSE 01:14:55 10° SE night (unlit)
27 Jan - 02:59:10 10° SW 03:04:33 25° SSE 03:10:14 10° ESE visible
27 Jan - 04:51:22 10° WSW 04:57:18 29° S 05:03:33 10° SE visible
27 Jan - 06:44:54 10° WSW 06:50:05 20° SSW 06:55:25 10° SSE visible
28 Jan - 01:58:59 10° SSW 02:03:47 21° SSE 02:08:48 10° ESE night (unlit)
28 Jan - 03:50:39 10° SW 03:56:25 29° S 04:02:30 10° ESE visible
28 Jan - 05:43:41 10° WSW 05:49:11 24° SSW 05:54:57 10° SE visible
28 Jan - 07:39:21 10° SW 07:41:49 12° SSW 07:44:19 10° S daylight
29 Jan - 00:59:10 10° SSW 01:03:05 17° SSE 01:07:07 10° ESE night (unlit)
29 Jan - 02:50:06 10° SW 02:55:34 27° S 03:01:21 10° ESE visible
29 Jan - 04:42:42 10° WSW 04:48:18 26° S 04:54:13 10° SE visible
29 Jan - 06:36:56 10° SW 06:40:59 16° SSW 06:45:10 10° SSE visible
30 Jan - 00:00:08 10° S 00:02:26 12° SSE 00:04:46 10° SE night (unlit)
30 Jan - 01:49:43 10° SW 01:54:47 24° SSE 02:00:06 10° ESE night (unlit)
30 Jan - 03:41:53 10° WSW 03:47:27 27° S 03:53:21 10° SE visible
30 Jan - 05:35:23 10° WSW 05:40:09 19° SSW 05:45:07 10° SSE visible
31 Jan - 00:49:34 10° SSW 00:54:04 20° SSE 00:58:44 10° ESE night (unlit)
31 Jan - 02:41:12 10° SW 02:46:37 27° S 02:52:20 10° SE night (unlit)
31 Jan - 04:34:12 10° WSW 04:39:19 22° SSW 04:44:41 10° SE visible
31 Jan - 06:30:21 10° SW 06:31:53 11° SSW 06:33:28 10° SSW visible
31 Jan - 23:49:45 10° SSW 23:53:24 16° SSE 23:57:08 10° SE night (unlit)
01 Feb - 01:40:40 10° SW 01:45:51 26° S 01:51:16 10° ESE night (unlit)
01 Feb - 03:33:15 10° WSW 03:38:30 25° S 03:44:01 10° SE visible
01 Feb - 05:27:35 10° SW 05:31:06 14° SSW 05:34:44 10° S visible
01 Feb - 22:50:43 10° S 22:52:46 12° SSE 22:54:51 10° SE night (unlit)
